Change the Weather History Date:

Wednesday, March 19, 2014

  Actual Average Record
Temperature  
Mean Temperature 46 °F -  
Max Temperature 60 °F 53 °F 60 °F (2005)
Min Temperature 32 °F 39 °F 26 °F (2001)
Degree Days  
Heating Degree Days 19    
Moisture  
Dew Point 44 °F    
Average Humidity 82    
Maximum Humidity 100    
Minimum Humidity 46    
Precipitation  
Precipitation 0.01 in - - ()
Sea Level Pressure  
Sea Level Pressure 30.20 in    
Wind  
Wind Speed 6 mph ()    
Max Wind Speed 14 mph    
Max Gust Speed -    
Visibility 6.2 miles    
Events      
Averages and records for this station are not official NWS values.
T = Trace of Precipitation, MM = Missing Value Source: Averaged Metar Reports

Daily Weather History Graph

Daily Weather History Graph

Search for Another Location

Airport or City:

Trip Planner

Search our weather history database for the weather conditions in past years. The results will help you decide how hot, cold, wet, or windy it might be!

Date:

Astronomy

Mar. 19, 2014 Rise Set
Actual Time 6:18 AM GMT 6:24 PM GMT
Civil Twilight 5:46 AM GMT 6:57 PM GMT
Nautical Twilight 5:07 AM GMT 7:36 PM GMT
Astronomical Twilight 4:27 AM GMT 8:16 PM GMT
Moon 9:50 PM GMT (3/19) 7:17 AM GMT (3/19)
Length of Visible Light 13h 11m
Length of Day
12h 05m
Waning Gibbous, 92% of the Moon is Illuminated
Mar 19
Waning Gibbous
Mar 24
Last Quarter
Mar 30
New
Apr 7
First Quarter
Apr 15
Full

Hourly Weather History & Observations

Time (GMT) Temp. Windchill Dew Point Humidity Pressure Visibility Wind Dir Wind Speed Gust Speed Precip Events Conditions
12:00 AM 46 °F - 44 °F 88%  in - Calm Calm - -  
12:20 AM 44.6 °F 42.2 °F 42.8 °F 93% 30.24 in 6.2 mi North 4.6 mph - N/A   Partly Cloudy
12:50 AM 44.6 °F 43.1 °F 41.0 °F 87% 30.24 in 6.2 mi Variable 3.5 mph - N/A   Partly Cloudy
1:00 AM 45 °F - 42 °F 86%  in - Calm Calm - -  
1:20 AM 44.6 °F 43.1 °F 42.8 °F 93% 30.27 in 6.2 mi Variable 3.5 mph - N/A   Partly Cloudy
2:00 AM 43 °F - 42 °F 95%  in - Calm Calm - -  
3:00 AM 39 °F - 38 °F 94%  in - Calm Calm - -  
4:00 AM 36 °F - 36 °F 98%  in - Calm Calm - -  
5:00 AM 35 °F - 35 °F 98%  in - Calm Calm - -  
6:00 AM 38 °F - 38 °F 99%  in - Calm Calm - -  
6:20 AM 39.2 °F 37.0 °F 39.2 °F 100% 30.27 in 6.2 mi Variable 3.5 mph - N/A   Partly Cloudy
6:50 AM 39.2 °F - 39.2 °F 100% 30.27 in 6.2 mi Variable 2.3 mph - N/A   Partly Cloudy
7:00 AM 39 °F - 38 °F 96%  in - Calm Calm - -  
7:20 AM 41.0 °F 39.0 °F 41.0 °F 100% 30.27 in 6.2 mi Variable 3.5 mph - N/A   Partly Cloudy
7:50 AM 42.8 °F 40.1 °F 42.8 °F 100% 30.27 in 6.2 mi WNW 4.6 mph - N/A   Partly Cloudy
8:00 AM 44 °F - 43 °F 96%  in - Calm Calm - -  
8:20 AM 42.8 °F 40.1 °F 42.8 °F 100% 30.27 in 6.2 mi SW 4.6 mph - N/A   Partly Cloudy
8:50 AM 42.8 °F 40.1 °F 42.8 °F 100% 30.27 in 6.2 mi SSW 4.6 mph - N/A   Partly Cloudy
9:00 AM 46 °F - 44 °F 90%  in - Calm Calm - -  
9:20 AM 46.4 °F 44.3 °F 44.6 °F 93% 30.27 in 6.2 mi SW 4.6 mph - N/A   Partly Cloudy
9:50 AM 48.2 °F - 44.6 °F 87% 30.27 in 6.2 mi South 5.8 mph - N/A   Partly Cloudy
10:00 AM 49 °F - 45 °F 81%  in - Calm Calm - -  
10:20 AM 50.0 °F - 46.4 °F 87% 30.27 in 6.2 mi Variable 2.3 mph - N/A   Partly Cloudy
10:50 AM 51.8 °F - 46.4 °F 82% 30.27 in 6.2 mi Variable 2.3 mph - N/A   Partly Cloudy
11:00 AM 52 °F - 45 °F 71%  in - Calm Calm - -  
11:20 AM 53.6 °F - 46.4 °F 77% 30.24 in 6.2 mi Variable 2.3 mph - N/A   Partly Cloudy
11:50 AM 53.6 °F - 46.4 °F 77% 30.24 in 6.2 mi Variable 2.3 mph - N/A   Partly Cloudy
12:00 PM 55 °F - 46 °F 63%  in - Calm Calm - -  
12:20 PM 55.4 °F - 48.2 °F 77% 30.24 in 6.2 mi Variable 2.3 mph - N/A   Partly Cloudy
12:50 PM 57.2 °F - 48.2 °F 72% 30.24 in - Variable 3.5 mph - N/A   Clear
1:00 PM 56 °F - 46 °F 60%  in - Calm Calm - -  
1:20 PM 57.2 °F - 46.4 °F 67% 30.21 in - Variable 3.5 mph - N/A   Clear
1:50 PM 59.0 °F - 48.2 °F 67% 30.21 in 6.2 mi South 5.8 mph - N/A   Partly Cloudy
2:00 PM 60 °F - 45 °F 46%  in - Calm Calm - -  
2:20 PM 59.0 °F - 48.2 °F 67% 30.21 in 6.2 mi South 9.2 mph - N/A   Partly Cloudy
2:50 PM 59.0 °F - 48.2 °F 67% 30.18 in 6.2 mi South 12.7 mph - N/A   Partly Cloudy
3:00 PM 58 °F - 47 °F 58%  in - Calm Calm - -  
3:20 PM 57.2 °F - 48.2 °F 72% 30.18 in 6.2 mi South 13.8 mph - N/A   Partly Cloudy
3:50 PM 59.0 °F - 46.4 °F 63% 30.18 in 6.2 mi SSW 12.7 mph - N/A   Partly Cloudy
4:00 PM 58 °F - 46 °F 54%  in - Calm Calm - -  
4:20 PM 59.0 °F - 46.4 °F 63% 30.18 in 6.2 mi SW 10.4 mph - N/A   Partly Cloudy
4:50 PM 57.2 °F - 46.4 °F 67% 30.15 in 6.2 mi SW 11.5 mph - N/A   Partly Cloudy
5:00 PM 57 °F - 47 °F 59%  in - Calm Calm - -  
5:20 PM 55.4 °F - 46.4 °F 72% 30.15 in 6.2 mi SW 11.5 mph - N/A   Partly Cloudy
5:50 PM 53.6 °F - 44.6 °F 72% 30.15 in 6.2 mi SW 11.5 mph - N/A   Partly Cloudy
6:00 PM 52 °F - 44 °F 65%  in - Calm Calm - -  
6:20 PM 51.8 °F - 42.8 °F 71% 30.18 in 6.2 mi SSW 11.5 mph - N/A   Partly Cloudy
6:50 PM 48.2 °F - 42.8 °F 82% 30.18 in 6.2 mi South 8.1 mph - N/A   Partly Cloudy
7:00 PM 48 °F - 42 °F 75%  in - Calm Calm - -  
7:20 PM 48.2 °F - 42.8 °F 82% 30.15 in 6.2 mi South 12.7 mph - N/A   Partly Cloudy
7:50 PM 46.4 °F 41.9 °F 42.8 °F 87% 30.15 in 6.2 mi SSW 9.2 mph - N/A   Partly Cloudy
8:00 PM 46 °F - 42 °F 79%  in - Calm Calm - -  
8:20 PM 46.4 °F 42.4 °F 41.0 °F 81% 30.15 in - South 8.1 mph - N/A   Clear
8:50 PM 44.6 °F 38.4 °F 41.0 °F 87% 30.12 in - South 12.7 mph - N/A   Clear
9:00 PM 46 °F - 42 °F 81%  in - Calm Calm - -  
9:20 PM 44.6 °F 39.7 °F 42.8 °F 93% 30.12 in - SE 9.2 mph - N/A   Clear
9:50 PM 44.6 °F 40.2 °F 41.0 °F 87% 30.12 in - ESE 8.1 mph - N/A   Clear
10:00 PM 45 °F - 42 °F 83%  in - Calm Calm - -  
10:20 PM 44.6 °F 39.7 °F 42.8 °F 93% 30.09 in 6.2 mi SE 9.2 mph - N/A   Partly Cloudy
10:50 PM 44.6 °F 39.2 °F 42.8 °F 93% 30.09 in 6.2 mi South 10.4 mph - N/A   Partly Cloudy
11:00 PM 46 °F - 42 °F 80%  in - Calm Calm - -  
11:20 PM 44.6 °F 39.7 °F 42.8 °F 93% 30.06 in 6.2 mi South 9.2 mph - N/A   Partly Cloudy
11:50 PM 44.6 °F 38.4 °F 42.8 °F 93% 30.06 in 6.2 mi South 12.7 mph - N/A   Scattered Clouds